Location: Prescott
(34.5400°N, 112.4680°W)
Time: 16:22:41
(UTC-07:00)

Hubble Space Telescope - Visible Passes

Search period start: 25 February 2018 00:00
Search period end: 07 March 2018 00:00
Orbit: 537 x 541 km, 28.5° (Epoch: 24 February)

Date Brightness Start Highest point End Pass type
(mag) Time Alt. Az. Time Alt. Az. Time Alt. Az.
25 Feb 3.6 04:28:54 14° ESE 04:28:54 14° ESE 04:29:41 10° ESE visible
25 Feb 2.0 06:04:15 17° WSW 06:06:47 31° S 06:10:26 10° SE visible
26 Feb 3.9 04:19:12 11° ESE 04:19:12 11° ESE 04:19:23 10° ESE visible
26 Feb 2.1 05:54:33 20° SW 05:56:27 28° S 06:00:00 10° SE visible
27 Feb 2.2 05:44:53 22° SW 05:46:06 25° SSW 05:49:31 10° SE visible
28 Feb 2.3 05:35:15 21° SSW 05:35:45 22° SSW 05:38:58 10° SE visible
01 Mar 2.6 05:25:40 19° SSW 05:25:40 19° SSW 05:28:20 10° SSE visible
02 Mar 3.0 05:16:08 14° S 05:16:08 14° S 05:17:34 10° SSE visible
